Weather reports worldwide

Advertisment
Benson, United Kingdom (3658): temperature & dewpoint: 20.03.2019 19:00:00 - 26.03.2019 19:00:00 (GMT)Benson, United Kingdom (3658): temperature -20cm & temperature -100cm: 20.03.2019 19:00:00 - 26.03.2019 19:00:00 (GMT)Benson, United Kingdom (3658): wind speed: 20.03.2019 19:00:00 - 26.03.2019 19:00:00 (GMT)Benson, United Kingdom (3658): wind direction: 20.03.2019 19:00:00 - 26.03.2019 19:00:00 (GMT)Benson, United Kingdom (3658): reduced air pressure: 20.03.2019 19:00:00 - 26.03.2019 19:00:00 (GMT)Benson, United Kingdom (3658): visibility: 20.03.2019 19:00:00 - 26.03.2019 19:00:00 (GMT)Benson, United Kingdom (3658): precipitation: 20.03.2019 19:00:00 - 26.03.2019 19:00:00 (GMT)
Date & Time tt [°C] td [°C] tt -20cm [°C] tt -100cm [°C] ff [km/h] ff [kn] dd ppp [hPa] vv [km] rr [mm]
26.03.2019 19:00:00 8,2 3,0 - - 0 0 N 1033,5 10 0,0
26.03.2019 18:00:00 11,4 2,9 - - 5 3 NNW 1032,9 10 0,0
26.03.2019 17:00:00 12,8 2,6 - - 15 8 W 1032,6 10 0,0
26.03.2019 16:00:00 12,9 3,1 - - 9 5 N 1032,7 10 0,0
26.03.2019 15:00:00 13,0 2,5 - - 15 8 W 1033,0 10 0,0
26.03.2019 14:00:00 12,7 3,2 - - 11 6 NNW 1033,5 35 0,0
26.03.2019 13:00:00 11,8 2,4 - - 11 6 NNW 1034,4 30 0,0
26.03.2019 12:00:00 10,8 1,8 - - 11 6 NNW 1034,6 10 0,0
26.03.2019 11:00:00 10,7 3,4 - - 13 7 NW 1035,2 10 0,0
26.03.2019 10:00:00 9,4 4,5 - - 11 6 NW 1035,4 10 0,0
26.03.2019 09:00:00 6,1 3,2 8,5 8,7 8 4 WNW 1035,5 10 0,0
26.03.2019 08:00:00 2,6 1,6 - - 0 0 N 1035,5 10 0,0
26.03.2019 07:00:00 -0,8 -1,6 - - 0 0 N 1035,7 10 0,0
26.03.2019 06:00:00 -3,0 -3,8 - - 2 1 NE 1035,5 10 0,0
26.03.2019 05:00:00 -2,2 -3,0 - - 4 2 SSE 1035,4 16 0,0
26.03.2019 04:00:00 -2,7 -3,5 - - 0 0 N 1035,6 12 0,0
26.03.2019 03:00:00 -2,4 -3,3 - - 2 1 S 1035,6 10 0,0
26.03.2019 02:00:00 -2,2 -3,4 - - 4 2 SE 1035,9 10 0,0
26.03.2019 01:00:00 -0,2 -1,4 - - 4 2 NNW 1036,0 10 0,0
26.03.2019 00:00:00 0,3 -1,0 - - 2 1 NE 1035,9 20 0,0
25.03.2019 23:00:00 0,0 -1,0 - - 5 3 E 1036,1 20 0,0
25.03.2019 22:00:00 1,3 -0,3 - - 5 3 WNW 1035,7 10 0,0
25.03.2019 21:00:00 2,3 0,5 - - 4 2 E 1035,2 30 0,0
25.03.2019 20:00:00 2,2 -0,1 - - 2 1 E 1034,6 25 0,0
25.03.2019 19:00:00 7,7 0,7 - - 5 3 NNE 1034,0 10 0,0
25.03.2019 18:00:00 10,2 1,1 - - 8 4 N 1033,3 10 0,0
25.03.2019 17:00:00 11,6 1,0 - - 13 7 NNW 1033,1 10 0,0
25.03.2019 16:00:00 11,6 0,2 - - 16 9 N 1033,1 10 0,0
25.03.2019 15:00:00 12,1 1,2 - - 11 6 N 1033,0 10 0,0
25.03.2019 14:00:00 10,4 0,5 - - 15 8 N 1033,4 10 0,0
25.03.2019 13:00:00 10,7 1,1 - - 15 8 N 1033,4 10 0,0
25.03.2019 12:00:00 9,6 0,4 - - 18 10 N 1033,5 10 0,0
25.03.2019 11:00:00 10,1 1,7 - - 22 12 N 1033,4 10 0,0
25.03.2019 10:00:00 9,4 2,0 - - 28 15 N 1033,0 10 0,0
25.03.2019 09:00:00 7,9 2,0 8,7 8,7 26 14 NNW 1032,4 10 0,0
25.03.2019 08:00:00 6,7 1,9 - - 21 11 NNW 1031,9 10 0,0
25.03.2019 07:00:00 5,0 1,5 - - 11 6 NW 1031,0 10 0,0
25.03.2019 06:00:00 4,8 0,5 - - 13 7 NW 1030,5 10 0,0
25.03.2019 05:00:00 6,1 1,8 - - 15 8 WNW 1029,8 10 0,0
25.03.2019 04:00:00 6,6 2,2 - - 18 10 NW 1029,4 26 0,0
25.03.2019 03:00:00 6,1 3,0 - - 9 5 WNW 1029,7 30 0,0
25.03.2019 02:00:00 6,7 3,0 - - 9 5 W 1029,4 35 0,0
25.03.2019 01:00:00 7,4 2,8 - - 13 7 W 1029,2 10 0,0
25.03.2019 00:00:00 5,7 1,9 - - 8 4 WSW 1029,5 10 0,0
24.03.2019 23:00:00 6,1 1,6 - - 8 4 WNW 1029,9 40 0,0
24.03.2019 22:00:00 6,5 1,5 - - 8 4 W 1030,1 45 0,0
24.03.2019 21:00:00 6,8 1,3 - - 8 4 W 1030,0 10 0,0
24.03.2019 20:00:00 7,9 0,9 - - 11 6 W 1029,9 10 0,0
24.03.2019 19:00:00 8,9 0,5 - - 11 6 WNW 1029,8 60 0,0
24.03.2019 18:00:00 10,4 0,0 - - 15 8 NW 1029,3 10 0,0
24.03.2019 17:00:00 11,9 1,1 - - 15 8 WNW 1029,2 10 0,0
24.03.2019 16:00:00 12,1 1,1 - - 18 10 NW 1029,3 10 0,0
24.03.2019 15:00:00 12,4 0,6 - - 21 11 WNW 1029,6 35 0,0
24.03.2019 14:00:00 12,7 2,1 - - 15 8 WNW 1030,0 10 0,0
24.03.2019 13:00:00 12,4 2,0 - - 15 8 W 1030,3 10 0,0
24.03.2019 12:00:00 12,2 2,6 - - 13 7 WNW 1031,0 10 0,0
24.03.2019 11:00:00 11,6 2,4 - - 5 3 WNW 1031,5 10 0,0
24.03.2019 10:00:00 10,1 4,5 - - 4 2 NW 1032,0 10 0,0
24.03.2019 09:00:00 8,1 4,2 8,7 8,7 4 2 SSW 1032,2 10 0,0
24.03.2019 08:00:00 6,8 4,7 - - 0 0 N 1032,2 16 0,0
24.03.2019 07:00:00 4,1 3,3 - - 0 0 N 1031,9 10 0,0
24.03.2019 06:00:00 4,2 3,2 - - 4 2 NNE 1031,8 10 0,0
24.03.2019 05:00:00 4,1 2,7 - - 4 2 WNW 1031,4 10 0,0
24.03.2019 04:00:00 4,2 2,8 - - 4 2 S 1031,1 10 0,0
24.03.2019 03:00:00 3,9 2,4 - - 0 0 N 1031,8 10 0,0
24.03.2019 02:00:00 4,7 2,9 - - 2 1 W 1032,4 22 0,0
24.03.2019 01:00:00 6,1 3,0 - - 2 1 N 1032,9 10 0,0
24.03.2019 00:00:00 6,2 3,1 - - 5 3 NNE 1033,1 10 0,0
23.03.2019 23:00:00 5,5 2,8 - - 5 3 NNE 1033,1 24 0,0
23.03.2019 22:00:00 5,4 1,9 - - 5 3 N 1033,2 11 0,0
23.03.2019 21:00:00 5,4 1,6 - - 8 4 NNW 1033,3 10 0,0
23.03.2019 20:00:00 5,8 1,6 - - 8 4 NNE 1033,0 30 0,0
23.03.2019 19:00:00 6,0 1,6 - - 9 5 NNE 1032,7 35 0,0
23.03.2019 18:00:00 9,1 2,6 - - 11 6 NNE 1032,4 35 0,0
23.03.2019 17:00:00 10,8 2,7 - - 15 8 NNE 1032,2 10 0,0
23.03.2019 16:00:00 11,5 2,8 - - 16 9 NNE 1032,2 10 0,0
23.03.2019 15:00:00 11,4 2,1 - - 18 10 N 1032,4 30 0,0
23.03.2019 14:00:00 12,1 2,7 - - 18 10 N 1032,6 30 0,0
23.03.2019 13:00:00 11,8 2,8 - - 15 8 NNE 1032,9 10 0,0
23.03.2019 12:00:00 11,6 2,7 - - 16 9 NNE 1033,0 30 0,0
23.03.2019 11:00:00 10,5 1,7 - - 18 10 NNE 1033,0 35 0,0
23.03.2019 10:00:00 9,6 3,9 - - 16 9 NNE 1032,9 30 0,0
23.03.2019 09:00:00 8,7 2,3 8,9 8,5 16 9 N 1032,6 10 0,0
23.03.2019 08:00:00 8,8 6,7 - - 11 6 N 1031,7 10 0,0
23.03.2019 07:00:00 8,3 7,5 - - 5 3 NE 1031,1 9 0,0
23.03.2019 06:00:00 7,7 7,0 - - 0 0 N 1030,6 4,5 0,0
23.03.2019 05:00:00 7,9 7,1 - - 0 0 N 1030,1 4,4 0,0
23.03.2019 04:00:00 8,3 7,2 - - 8 4 NW 1029,7 6 0,0
23.03.2019 03:00:00 8,0 7,1 - - 0 0 N 1029,5 8 0,0
23.03.2019 02:00:00 7,7 7,1 - - 5 3 S 1028,8 9 0,0
23.03.2019 01:00:00 7,1 6,8 - - 4 2 S 1028,6 10 0,0
23.03.2019 00:00:00 5,1 4,5 - - 4 2 S 1028,4 7 0,0
22.03.2019 23:00:00 5,8 4,8 - - 8 4 SSW 1028,3 10 0,0
22.03.2019 22:00:00 8,5 6,6 - - 9 5 SSW 1028,3 15 0,0
22.03.2019 21:00:00 10,0 7,2 - - 9 5 SSW 1028,0 10 0,0
22.03.2019 20:00:00 9,9 7,0 - - 5 3 SSW 1027,9 24 0,0
22.03.2019 19:00:00 10,1 7,0 - - 8 4 SSW 1027,9 27 0,0
22.03.2019 18:00:00 10,4 6,8 - - 11 6 SSW 1027,4 10 0,0
22.03.2019 17:00:00 10,5 7,1 - - 15 8 SSW 1027,0 10 0,0
22.03.2019 16:00:00 10,6 7,1 - - 16 9 SW 1027,0 10 0,0
22.03.2019 15:00:00 10,7 7,3 - - 16 9 SSW 1027,2 10 0,0
22.03.2019 14:00:00 10,4 7,1 - - 16 9 SW 1027,5 10 0,0
22.03.2019 13:00:00 10,4 7,0 - - 15 8 SSW 1028,0 10 0,0
22.03.2019 12:00:00 10,1 6,8 - - 16 9 SW 1028,3 10 0,0
22.03.2019 11:00:00 9,6 6,7 - - 15 8 SSW 1028,7 10 0,0
22.03.2019 10:00:00 9,1 6,6 - - 18 10 SSW 1029,1 10 0,0
22.03.2019 09:00:00 8,7 6,6 9,0 8,4 13 7 SW 1029,2 10 0,0
22.03.2019 08:00:00 8,7 6,4 - - 15 8 SW 1029,4 10 0,0
22.03.2019 07:00:00 8,8 6,5 - - 11 6 S 1028,8 10 0,0
22.03.2019 06:00:00 8,6 6,4 - - 15 8 S 1029,0 10 0,0
22.03.2019 05:00:00 8,9 6,3 - - 15 8 S 1029,3 10 0,0
22.03.2019 04:00:00 9,4 6,6 - - 15 8 S 1029,3 15 0,0
22.03.2019 03:00:00 10,2 7,0 - - 15 8 SSW 1029,7 16 0,0
22.03.2019 02:00:00 10,4 7,2 - - 16 9 S 1029,9 19 0,0
22.03.2019 01:00:00 10,7 7,5 - - 16 9 S 1030,6 21 0,0
22.03.2019 00:00:00 11,0 8,2 - - 11 6 SSE 1030,5 10 0,0
21.03.2019 23:00:00 10,6 8,6 - - 9 5 S 1031,0 10 0,0
21.03.2019 22:00:00 11,1 8,7 - - 9 5 SE 1031,7 10 0,0
21.03.2019 21:00:00 11,2 8,7 - - 5 3 SE 1032,2 10 0,0
21.03.2019 20:00:00 10,8 9,0 - - 5 3 ENE 1032,4 10 0,0
21.03.2019 19:00:00 11,2 8,9 - - 4 2 ENE 1032,4 10 0,0
21.03.2019 18:00:00 11,5 9,1 - - 5 3 ENE 1032,2 10 0,0
21.03.2019 17:00:00 12,0 9,1 - - 4 2 N 1032,3 10 0,0
21.03.2019 16:00:00 12,2 9,4 - - 8 4 N 1032,3 10 0,0
21.03.2019 15:00:00 11,9 8,8 - - 4 2 N 1032,8 10 0,0
21.03.2019 14:00:00 11,8 9,0 - - 8 4 NW 1033,5 10 0,0
21.03.2019 13:00:00 11,5 8,9 - - 9 5 WNW 1034,2 10 0,0
21.03.2019 12:00:00 11,3 9,0 - - 9 5 W 1034,3 10 0,0
21.03.2019 11:00:00 10,3 8,6 - - 11 6 WSW 1034,5 10 0,0
21.03.2019 10:00:00 9,8 8,4 - - 11 6 WSW 1034,5 10 0,0
21.03.2019 09:00:00 9,9 8,5 8,7 8,2 9 5 SSW 1034,2 20 0,0
21.03.2019 08:00:00 8,7 7,8 - - 11 6 SW 1033,8 10 0,0
21.03.2019 07:00:00 8,4 7,6 - - 8 4 SW 1033,6 10 0,0
21.03.2019 06:00:00 8,7 7,6 - - 4 2 S 1033,3 10 0,0
21.03.2019 05:00:00 8,8 7,5 - - 2 1 SW 1033,1 16 0,0
21.03.2019 04:00:00 8,8 7,4 - - 5 3 SW 1032,9 10 0,0
21.03.2019 03:00:00 8,9 7,3 - - 13 7 WSW 1033,1 10 0,0
21.03.2019 02:00:00 9,1 7,4 - - 11 6 W 1033,4 15 0,0
21.03.2019 01:00:00 9,4 7,4 - - 13 7 WSW 1033,3 24 0,0
21.03.2019 00:00:00 9,9 7,7 - - 13 7 SW 1033,4 26 0,0
20.03.2019 23:00:00 10,4 7,6 - - 13 7 SW 1033,3 30 0,0
20.03.2019 22:00:00 10,5 7,6 - - 9 5 SSW 1033,1 35 0,0
20.03.2019 21:00:00 10,7 7,6 - - 11 6 SW 1033,3 10 0,0
20.03.2019 20:00:00 11,0 7,7 - - 11 6 SW 1033,2 10 0,0
20.03.2019 19:00:00 11,5 7,6 - - 13 7 WSW 1033,0 10 0,0

tt = temperature
td = dewpoint
tt -20cm = temperature -20cm
tt -100cm = temperature -100cm
ff = wind speed
dd = wind direction
ppp = reduced air pressure
vv = visibility
rr = precipitation

Next stations